SCP
0 0 0 0 0 0 0 0 0 0 0 0 0 0 0 0 0 0 0 0 0 0 0 0 0 0 0 0 0 0 0 0 0 0 0 0 0 0 0 0 0 0 0
0 0 0 0 0 0 0 0 0 0 0 0 0 0 0 0 0 0 0 0 0 0 0 0 0 0 0 0 0 0 0 0 0 0 0 0 0 0 0 0 0 0 0
0 0 0 0 0 0 0 0 0 0 0 0 0 0 0 0 0 0 0 0 0 0 0 0 0 0 0 0 0 0 0 0 0 0 0 0 0 0 0 0 0 0 0
0 0 0 0 0 0 0 0 0 0 0 0 0 0 0 0 0 0 0 0 0 0 0 0 0 0 0 0 0 0 0 0 0 0 0 0 0 0 0 0 0 0 0
0 0 0 0 0 0 0 0 0 0 0 0 0 0 0 0 0 0 0 0 0 0 0 0 0 0 0 0 0 0 0 0 0 0 0 0 0 0 0 0 0 0 0
0 0 0 0 0 0 0 0 0 0 0 0 0 0 0 0 0 0 0 0 0 0 0 0 0 0 0 0 0 0 0 0 0 0 0 0 0 0 0 0 0 0 0
0 0 0 0 0 0 0 0 0 0 0 0 0 0 0 0 0 0 0 0 0 0 0 0 0 0 0 0 0 0 0 0 0 0 0 0 0 0 0 0 0 0 0
0 0 0 0 0 0 0 0 0 0 0 0 0 0 0 0 0 0 0 0 0 0 0 0 0 0 0 0 0 0 0 0 0 0 0 0 0 0 0 0 0 0 0
0 0 0 0 0 0 0 0 0 0 0 0 0 0 0 0 0 0 0 0 0 0 0 0 0 0 0 0 0 0 0 0 0 0 0 0 0 0 0 0 0 0 0
0 0 0 0 0 0 0 0 0 0 0 0 0 0 0 0 0 0 0 0 0 0 0 0 0 0 0 0 0 0 0 0 0 0 0 0 0 0 0 0 0 0 0
0 0 0 0 0 0 0 0 0 0 0 0 0 0 0 0 0 0 0 0 0 0 0 0 0 0 0 0 0 0 0 0 0 0 0 0 0 0 0 0 0 0 0
0 0 0 0 0 0 0 0 0 0 0 0 0 0 0 0 0 0 0 0 0 0 0 0 0 0 0 0 0 0 0 0 0 0 0 0 0 0 0 0 0 0 0
0 0 0 0 0 0 0 0 0 0 0 0 0 0 0 0 0 0 0 0 0 0 0 0 0 0 0 0 0 0 0 0 0 0 0 0 0 0 0 0 0 0 0
0 0 0 0 0 0 0 0 0 0 0 0 0 0 0 0 0 0 0 0 0 0 0 0 0 0 0 0 0 0 0 0 0 0 0 0 0 0 0 0 0 0 0
0 0 0 0 0 0 0 0 0 0 0 0 0 0 0 0 0 0 0 0 0 0 0 0 0 0 0 0 0 0 0 0 0 0 0 0 0 0 0 0 0 0 0
0 0 0 0 0 0 0 0 0 0 0 0 0 0 0 0 0 0 0 0 0 0 0 0 0 0 0 0 0 0 0 0 0 0 0 0 0 0 0 0 0 0 0
0 0 0 0 0 0 0 0 0 0 0 0 0 0 0 0 0 0 0 0 0 0 0 0 0 0 0 0 0 0 0 0 0 0 0 0 0 0 0 0 0 0 0
0 0 0 0 0 0 0 0 0 0 0 0 0 0 0 0 0 0 0 0 0 0 0 0 0 0 0 0 0 0 0 0 0 0 0 0 0 0 0 0 0 0 0
0 0 0 0 0 0 0 0 0 0 0 0 0 0 0 0 0 0 0 0 0 0 0 0 0 0 0 0 0 0 0 0 0 0 0 0 0 0 0 0 0 0 0
0 0 0 0 0 0 0 0 0 0 0 0 0 0 0 0 0 0 0 0 0 0 0 0 0 0 0 0 0 0 0 0 0 0 0 0 0 0 0 0 0 0 0
0 0 0 0 0 0 0 0 0 0 0 0 0 0 0 0 0 0 0 0 0 0 0 0 0 0 0 0 0 0 0 0 0 0 0 0 0 0 0 0 0 0 0
0 0 0 0 0 0 0 0 0 0 0 0 0 0 0 0 0 0 0 0 0 0 0 0 0 0 0 0 0 0 0 0 0 0 0 0 0 0 0 0 0 0 0
0 0 0 0 0 0 0 0 0 0 0 0 0 0 0 0 0 0 0 0 0 0 0 0 0 0 0 0 0 0 0 0 0 0 0 0 0 0 0 0 0 0 0
0 0 0 0 0 0 0 0 0 0 0 0 0 0 0 0 0 0 0 0 0 0 0 0 0 0 0 0 0 0 0 0 0 0 0 0 0 0 0 0 0 0 0
0 0 0 0 0 0 0 0 0 0 0 0 0 0 0 0 0 0 0 0 0 0 0 0 0 0 0 0 0 0 0 0 0 0 0 0 0 0 0 0 0 0 0
0 0 0 0 0 0 0 0 0 0 0 0 0 0 0 0 0 0 0 0 0 0 0 0 0 0 0 0 0 0 0 0 0 0 0 0 0 0 0 0 0 0 0
Wind_Speed
2 2 2 2 2 2 2 2 1 2 2 3 2 3 3 4 5 4 3 7 8 8 9 9 10 11 11 11 11 10 10 10 10 10 10 11 12 12 12 12 12 12 12
2 1 2 2 2 2 2 2 2 2 2 2 3 3 3 4 5 5 4 5 7 8 8 9 9 10 10 10 9 9 9 9 9 10 10 10 11 11 11 11 11 11 11
1 1 1 1 2 2 2 2 2 2 2 2 3 3 3 3 4 4 4 3 4 6 7 8 8 9 9 9 9 9 10 10 10 10 10 10 11 11 11 11 10 11 11
2 1 1 1 1 2 2 2 2 2 2 2 2 2 2 3 4 4 4 3 3 3 5 7 8 8 8 8 8 9 9 9 9 9 9 9 10 9 10 10 10 10 10
1 1 1 1 1 2 2 2 2 2 2 2 2 2 2 2 3 4 4 4 4 4 3 5 7 7 7 7 7 8 8 8 8 8 8 8 8 8 8 8 8 8 9
1 1 2 2 1 2 2 2 3 3 2 2 3 3 2 2 2 3 3 3 3 4 3 4 3 4 6 7 6 7 7 7 7 7 7 7 7 7 7 7 7 7 7
2 1 1 2 1 1 2 3 3 3 3 3 3 2 2 2 3 2 2 3 3 3 3 3 3 3 3 5 5 6 6 7 6 6 6 6 6 6 6 5 5 5 6
1 1 1 1 1 1 2 3 3 2 2 2 2 3 2 1 1 1 2 2 2 2 2 3 3 3 3 2 3 5 5 5 5 5 6 6 5 5 4 4 4 4 4
1 1 1 1 1 1 2 2 3 3 3 2 2 2 3 3 1 0 1 2 2 2 1 2 2 3 3 3 3 3 3 3 5 5 5 5 5 4 3 3 3 3 4
1 1 1 1 1 1 1 2 1 2 3 3 1 1 1 4 4 2 0 1 2 2 1 1 2 2 3 3 3 4 3 3 4 4 4 4 4 3 3 2 2 2 2
1 1 1 1 1 1 1 1 1 2 2 3 2 1 1 1 3 3 3 2 1 1 1 1 2 2 2 3 3 3 4 4 4 4 4 4 3 3 2 2 1 1 2
2 1 1 1 0 0 1 2 2 2 2 2 2 2 2 2 2 3 3 3 2 1 1 1 2 2 2 2 3 4 5 5 4 4 4 4 3 3 2 1 1 0 1
2 2 1 0 1 1 1 1 1 2 2 3 3 2 2 2 1 2 3 3 2 1 1 1 1 2 2 2 2 4 5 5 4 4 5 4 3 3 2 2 1 1 0
2 2 2 1 1 1 1 1 1 2 2 2 2 2 2 1 1 2 3 3 2 1 2 2 1 2 2 2 2 4 3 4 4 4 4 4 3 3 2 2 1 1 1
2 2 2 2 1 2 2 2 2 2 2 2 3 2 2 2 2 2 2 3 4 3 3 3 2 2 2 2 3 3 3 4 4 4 3 3 3 3 3 2 2 1 1
1 2 2 2 1 1 1 2 2 2 2 2 2 3 2 2 2 2 2 2 2 3 3 3 3 2 3 3 3 3 3 4 4 4 4 4 3 4 4 3 3 3 2
1 2 2 2 2 2 2 2 2 2 3 3 2 3 3 3 3 3 3 2 2 2 2 1 1 2 3 3 2 2 3 3 3 5 5 5 4 4 4 4 4 4 3
2 2 2 2 2 2 2 2 3 3 3 4 3 3 3 2 3 3 3 3 2 2 3 3 2 2 3 4 3 3 2 2 2 4 5 5 5 4 4 4 4 4 3
2 2 2 3 2 2 2 2 3 3 4 4 4 5 4 4 3 3 3 4 3 2 3 3 3 2 2 3 3 2 2 2 2 3 4 5 5 5 5 5 5 5 4
2 2 3 3 3 3 3 3 3 3 4 4 5 5 5 5 5 4 4 4 3 3 3 3 3 3 2 3 3 3 2 2 2 2 2 3 5 6 6 6 5 5 5
3 3 3 3 2 3 3 4 4 4 4 4 4 5 5 5 6 6 4 5 5 4 3 3 4 3 3 3 4 3 3 2 2 2 1 2 2 2 4 5 6 6 6
3 3 3 3 3 3 6 7 5 4 4 5 5 5 5 5 6 7 7 7 7 6 5 4 4 5 5 4 4 3 3 2 3 2 2 2 2 3 3 3 5 6 7
4 3 4 4 4 5 7 7 8 5 5 5 5 5 4 5 6 5 6 6 7 8 8 7 6 6 6 6 6 5 5 4 3 3 2 3 2 3 2 3 6 6 7
4 4 4 4 4 5 8 8 8 5 5 6 6 6 6 6 6 6 5 5 5 5 6 6 6 7 6 6 8 7 5 3 0 1 3 2 2 2 2 2 5 6 6
5 5 4 4 4 6 8 8 7 4 5 6 6 6 6 6 8 7 6 6 4 3 4 5 6 6 7 7 6 4 4 4 2 2 2 2 1 1 2 2 3 5 5
5 5 5 4 5 5 7 8 7 4 5 5 5 6 8 8 8 9 7 6 6 4 3 2 3 4 4 6 8 7 6 5 3 2 3 3 2 1 2 2 1 2 3
Wind_Direction
128 132 141 149 151 141 147 151 143 110 105 117 119 107 103 97 94 95 86 79 86 94 101 107 113 111 110 106 102 100 98 94 90 87 84 82 80 76 74 69 67 65 64
115 133 132 136 136 135 148 147 134 117 100 113 116 111 108 104 100 104 108 89 82 86 94 103 107 109 111 110 106 102 98 95 92 90 87 86 83 78 74 71 68 64 61
115 140 138 138 135 136 138 130 119 111 108 108 108 110 106 102 102 105 108 109 96 82 89 103 106 107 108 108 108 104 99 96 94 91 89 86 84 80 76 72 68 65 62
104 119 132 134 125 133 137 139 127 115 108 107 104 97 102 107 104 105 101 105 109 103 90 93 98 103 107 110 110 107 104 100 97 95 91 89 85 81 78 74 69 66 62
93 105 123 124 124 122 123 131 124 123 114 99 107 94 88 106 114 111 106 99 98 107 110 101 97 100 104 108 112 113 111 105 102 99 96 93 87 82 81 76 71 66 62
90 84 105 120 121 123 118 117 121 119 120 113 100 87 80 98 104 106 111 104 101 109 116 118 114 102 102 107 109 113 114 113 111 106 100 97 92 85 83 79 75 68 62
57 93 114 133 132 135 141 132 128 124 124 115 105 94 51 64 91 92 98 107 105 108 116 117 116 116 110 103 106 116 121 121 118 116 113 106 98 90 84 82 78 72 62
63 65 101 138 128 117 134 135 129 132 149 153 142 135 121 65 46 81 93 108 118 110 114 118 124 122 119 117 105 107 120 128 127 126 125 116 106 102 95 87 82 77 65
60 73 65 98 132 144 159 162 152 141 161 189 167 157 152 171 142 100 126 124 128 119 121 120 124 129 124 121 126 122 122 133 142 142 135 128 120 113 106 93 87 87 74
27 86 84 64 118 145 164 177 161 166 161 182 214 232 164 145 145 151 182 157 145 138 140 130 133 138 131 133 129 129 137 145 152 154 147 144 142 134 121 102 87 84 78
359 85 104 101 121 160 172 187 182 190 184 185 188 189 119 118 137 145 171 179 163 172 166 155 143 140 146 145 148 150 155 162 171 175 171 166 165 152 137 129 98 68 57
344 1 47 127 149 176 189 200 200 212 210 196 193 181 165 165 172 149 155 169 179 190 181 163 151 155 150 146 155 155 165 173 185 193 194 190 181 168 161 168 168 104 42
323 321 345 248 210 211 219 212 208 227 221 204 198 195 182 188 169 149 145 160 159 174 174 183 174 159 148 147 156 164 177 178 187 199 202 196 183 173 180 194 213 235 289
302 309 311 305 263 218 221 208 217 226 224 216 210 191 184 193 170 158 158 154 150 186 194 198 184 174 151 150 167 163 171 177 184 198 202 200 181 169 180 186 205 226 195
302 310 314 294 283 231 206 200 217 218 214 219 213 201 188 191 179 170 157 162 162 181 211 194 180 188 164 157 172 171 169 177 188 191 188 181 177 176 180 180 184 182 174
287 281 301 288 293 288 230 206 223 214 209 223 214 202 204 193 182 170 168 184 177 175 199 197 187 176 170 173 176 172 182 177 185 184 182 183 185 183 184 187 191 185 192
292 273 283 277 268 270 263 224 225 212 213 218 211 205 214 199 188 183 176 182 189 173 185 195 167 163 167 175 174 178 179 178 184 191 191 191 190 188 192 193 195 196 198
286 275 274 264 252 249 251 242 231 218 218 216 206 210 219 206 199 189 181 185 193 188 179 184 181 173 183 185 180 182 181 185 185 191 199 198 197 196 200 199 199 200 202
275 272 275 264 252 247 243 245 243 232 226 222 209 206 213 201 205 201 191 188 193 194 184 176 180 180 185 181 178 185 177 185 198 192 199 209 209 208 208 205 202 202 208
275 264 269 265 255 253 244 241 246 241 237 230 218 208 207 202 202 201 199 195 187 185 189 175 175 176 181 183 172 178 190 195 205 199 209 216 218 217 215 211 209 211 216
285 265 266 266 260 257 247 235 233 240 238 235 223 212 210 207 209 205 204 195 186 187 193 187 182 181 186 181 190 188 194 196 219 193 184 216 214 216 212 213 214 218 224
280 270 262 255 252 258 265 260 246 240 241 234 228 219 213 208 210 212 212 206 197 191 196 198 200 197 201 196 188 186 181 183 221 198 184 230 205 219 222 215 222 222 224
286 273 265 249 244 251 260 260 253 245 243 235 227 220 218 214 212 211 210 211 211 205 200 201 205 207 201 194 186 192 199 203 217 197 182 225 208 226 230 231 225 226 227
285 273 270 262 257 257 261 259 257 246 246 241 229 220 214 208 210 207 206 211 217 213 209 210 211 211 208 196 192 194 195 191 197 202 177 213 217 232 248 239 231 230 230
287 283 273 260 257 258 259 258 257 240 240 240 232 221 212 208 210 208 207 209 216 231 228 223 226 219 212 204 190 169 172 179 212 222 198 183 203 260 258 244 236 229 234
287 287 279 266 259 258 260 258 254 239 240 239 233 221 217 216 210 204 205 202 210 220 209 216 217 211 203 195 189 185 184 188 192 211 198 174 183 163 259 254 227 233 246